Theta_e
316 317 321 324 323 319 322 321 327 326 336 338 346 345 348 354 354 352 351 352 349 348 348 348 348 349 348 348 342 339 338 337 339 348 348 350 353 356 359 359 359 359 358 356
320 319 321 324 323 321 321 322 325 325 335 337 344 344 347 352 354 353 353 353 352 350 350 348 344 347 352 352 350 349 352 353 352 355 356 355 355 355 356 356 356 358 357 353
319 320 322 321 321 321 322 322 327 334 335 333 336 343 346 349 353 353 353 354 352 350 349 348 345 345 348 353 354 354 354 355 354 354 350 348 351 351 350 352 355 355 354 351
316 320 322 320 320 323 323 324 326 330 331 339 342 344 345 348 349 352 353 355 352 351 351 351 350 350 350 350 351 352 354 355 354 349 348 349 346 345 346 351 354 354 354 351
319 317 319 325 327 325 325 325 324 325 329 335 339 340 343 347 348 349 350 354 353 353 352 351 351 353 352 351 352 356 355 354 352 350 350 349 348 345 344 349 350 349 347 344
317 322 323 322 323 328 326 326 327 325 329 334 338 343 340 344 346 351 353 356 355 352 352 352 353 355 356 354 355 353 352 350 349 347 346 344 344 344 344 344 344 347 347 345
320 322 322 320 328 329 329 327 327 329 330 335 337 337 340 344 348 353 354 351 351 351 352 353 352 351 351 350 345 337 330 327 325 324 323 323 323 323 323 323 324 325 327 331
323 328 328 329 331 329 327 331 334 330 332 334 336 336 340 343 346 348 349 350 349 348 346 344 341 337 335 332 330 329 327 325 324 324 323 322 320 318 317 317 317 318 318 319
323 324 325 329 329 331 331 335 334 332 335 336 338 341 345 347 348 348 347 345 343 341 339 337 335 332 332 331 329 327 327 327 327 327 327 323 319 318 318 320 321 320 320 319
328 327 328 329 328 333 334 332 333 334 334 335 339 343 345 345 345 344 342 342 340 338 335 333 332 332 331 327 326 328 329 329 329 327 324 322 322 323 324 324 325 326 327 326
327 327 329 329 331 334 334 332 332 333 334 334 335 339 338 342 342 341 339 337 336 334 333 333 332 331 328 328 329 330 329 327 326 325 325 325 326 327 328 327 328 328 328 328
328 327 327 329 331 334 331 331 332 332 335 335 334 335 339 339 336 333 335 335 335 333 332 333 330 329 329 331 330 328 326 323 322 323 323 322 322 322 323 324 324 325 325 326
329 330 331 330 331 333 332 333 335 336 336 337 337 334 334 334 336 337 336 334 333 332 330 329 329 331 328 327 325 323 323 323 322 322 323 325 325 327 326 325 321 318 318 319
330 330 330 331 330 331 333 333 334 333 331 333 334 334 334 336 336 335 333 332 331 330 331 330 327 325 324 324 322 322 324 326 326 327 327 327 327 326 322 320 318 316 316 316
329 330 331 331 332 332 331 332 332 331 332 333 333 332 333 334 333 332 332 331 331 328 325 324 325 325 323 323 324 326 327 327 328 328 327 325 322 321 317 314 314 316 316 316
328 329 329 330 330 331 331 331 331 331 331 331 331 332 331 332 331 330 329 327 324 324 326 326 324 323 324 326 327 327 326 325 324 323 322 321 316 313 314 316 317 317 318 319
329 328 328 330 329 329 330 330 330 330 330 331 330 330 329 328 326 325 325 324 323 323 323 323 324 325 325 328 327 326 325 323 322 320 316 312 315 317 317 318 317 318 320 320
328 327 328 328 329 329 329 329 329 329 328 328 327 326 325 324 324 323 323 324 323 324 324 326 326 327 327 328 327 324 322 320 316 312 313 316 317 319 319 319 318 317 317 318
327 328 328 328 327 328 329 328 328 327 327 326 325 324 323 322 323 324 324 324 325 325 326 326 327 328 328 327 324 321 316 311 312 316 318 318 320 321 320 318 316 315 316 315
328 328 328 327 328 328 328 327 327 327 325 323 324 324 324 324 325 325 324 325 326 327 326 327 328 328 326 323 318 312 311 313 317 318 317 318 318 319 318 318 317 316 315 315
326 326 326 328 328 328 327 324 323 324 324 324 324 324 323 323 324 325 325 324 325 326 327 327 327 324 320 314 310 309 314 317 316 315 315 316 317 317 318 318 316 316 316 315
326 328 328 327 326 325 324 324 325 325 325 324 324 323 323 324 325 325 325 324 325 327 327 324 322 317 311 309 308 312 316 315 312 313 313 315 315 316 316 316 316 315 313 313
327 328 329 325 324 325 325 325 324 323 324 325 324 323 323 325 326 326 325 324 325 323 322 321 315 310 307 306 306 309 315 313 310 311 312 313 314 315 315 315 315 314 314 315
327 326 326 325 325 326 325 324 323 323 324 325 324 324 324 325 326 326 325 324 324 322 319 312 310 309 306 305 305 309 314 311 309 310 311 312 313 315 315 314 314 314 314 314
326 326 327 326 325 326 324 323 324 324 324 324 325 325 324 325 325 325 325 324 322 318 311 309 314 306 305 304 304 309 313 310 308 309 310 311 312 313 313 314 314 314 313 311
326 324 321 321 324 324 324 324 323 324 323 324 324 324 323 321 321 323 324 322 318 310 308 314 316 304 305 303 303 308 312 312 310 310 310 310 310 311 312 312 312 312 311 311
321 320 319 321 321 322 323 324 324 325 324 324 324 323 322 322 321 322 322 318 310 313 316 312 303 303 303 303 303 306 311 311 310 310 309 308 308 309 310 311 311 311 311 310
Wind_Speed
7 6 5 6 6 9 7 6 7 7 10 15 19 17 30 33 26 21 18 16 14 12 11 8 8 14 14 9 12 12 16 18 21 18 17 17 15 15 16 17 20 20 18 17
6 3 7 5 6 8 5 5 5 4 7 6 12 17 23 34 32 27 23 20 18 15 14 11 8 8 8 5 4 7 5 7 6 8 9 11 13 14 14 16 17 17 16 17
9 3 2 6 7 8 5 4 8 7 13 11 7 16 30 35 34 32 28 25 22 19 17 13 10 7 6 6 6 5 6 5 4 5 7 9 11 13 14 16 18 17 17 17
4 3 5 8 3 2 7 6 10 1 8 23 34 39 30 36 37 34 30 29 24 20 18 16 13 11 9 8 8 7 6 6 6 7 9 10 11 12 12 13 13 13 15 15
6 5 5 3 4 6 7 10 8 9 4 9 20 19 14 34 34 32 32 30 24 20 17 17 14 12 10 8 8 9 8 9 9 10 12 13 14 14 14 13 14 15 16 17
3 6 8 9 0 3 4 7 8 14 12 17 24 9 8 31 29 32 28 26 23 20 17 16 14 13 11 10 10 9 8 7 9 10 12 14 16 17 18 19 20 20 21 22
3 3 7 6 2 5 4 9 9 23 26 30 13 8 22 28 23 26 24 21 19 16 14 12 10 7 7 6 4 3 4 8 13 17 20 22 22 22 23 25 27 27 29 30
3 2 7 5 4 9 6 2 8 12 23 24 14 16 30 29 28 26 26 23 18 15 13 11 9 6 5 5 6 8 12 16 18 19 20 22 25 27 28 29 31 32 33 35
6 5 5 11 11 7 5 12 12 18 19 18 19 26 29 30 28 26 24 21 19 17 15 13 10 7 4 7 11 14 14 16 17 21 24 25 24 24 26 27 28 30 31 33
1 3 7 11 2 9 19 23 22 24 22 18 25 26 26 26 26 25 22 21 20 18 15 12 9 5 8 13 17 17 18 20 23 26 28 29 27 27 28 29 29 29 30 31
2 5 3 5 5 12 16 17 19 19 19 20 21 23 19 23 22 20 20 21 18 16 15 11 8 10 14 17 18 19 22 26 29 29 30 30 29 30 30 31 30 32 33 34
4 3 1 5 8 12 12 10 9 14 16 16 10 8 14 14 6 12 19 22 18 21 18 14 16 16 17 17 19 24 27 30 31 31 30 29 28 27 24 24 26 30 32 34
3 9 6 5 6 9 8 9 13 10 10 13 12 7 6 17 21 22 19 20 21 20 17 17 16 15 16 20 25 28 29 25 23 22 21 23 26 28 31 29 28 29 30 31
4 8 6 7 6 6 5 8 10 6 5 8 11 13 18 22 21 22 22 18 16 15 14 13 15 17 19 24 26 25 25 24 23 24 25 25 28 29 32 38 42 44 42 43
3 2 5 10 11 11 14 15 14 12 12 14 16 16 18 19 20 19 16 13 12 11 12 14 16 20 22 23 22 21 22 24 24 24 25 26 30 34 39 44 47 50 52 54
2 5 6 9 11 12 15 15 14 13 14 16 16 15 15 14 14 11 9 9 10 11 13 16 20 19 20 20 19 19 20 21 23 25 29 33 37 42 45 48 50 52 46 40
11 12 11 16 18 19 17 16 14 13 12 10 11 11 10 8 6 5 7 10 11 13 16 18 18 17 19 19 20 21 22 23 26 31 35 40 42 47 47 42 38 38 38 37
19 21 21 15 19 19 18 14 9 10 11 10 8 4 3 5 7 9 8 10 14 17 17 18 19 18 18 19 20 22 24 28 33 36 40 42 42 34 30 31 33 35 37 37
12 14 14 12 11 11 11 11 12 10 8 5 4 6 8 9 9 9 13 16 18 19 17 19 17 16 15 17 21 24 28 33 36 40 41 36 28 27 30 31 32 33 32 32
5 8 9 12 12 9 12 11 8 4 3 1 3 4 5 8 12 16 18 17 16 17 18 17 15 13 15 19 23 27 32 35 38 38 28 24 24 25 26 27 30 30 30 30
10 12 12 11 9 6 3 4 4 1 1 3 5 6 7 10 12 11 12 13 12 13 11 8 10 13 17 22 25 30 33 34 32 25 23 22 22 23 24 27 29 29 29 28
7 6 5 7 3 3 5 3 2 4 6 7 7 7 8 9 8 6 9 12 12 9 7 8 12 16 19 22 27 31 33 32 24 21 19 19 19 21 23 25 27 28 28 27
8 7 4 4 3 4 4 5 6 6 7 9 9 8 8 8 9 8 10 11 6 5 6 9 13 15 19 24 30 35 33 29 21 18 17 16 17 20 22 24 25 26 26 24
7 7 6 3 5 5 6 8 9 7 9 11 11 11 11 11 10 9 10 8 7 6 6 10 12 15 20 26 28 31 31 26 20 17 15 14 15 17 20 22 24 25 24 22
5 4 2 3 7 9 10 8 7 8 9 12 13 12 12 10 10 10 8 6 6 5 6 8 13 15 21 23 26 28 27 22 18 17 15 15 15 15 18 20 23 25 23 25
2 3 6 7 7 6 6 7 9 11 13 13 12 11 8 5 7 8 7 10 9 3 7 11 12 15 16 19 23 24 24 24 23 20 18 17 16 17 18 21 25 27 28 29
3 2 4 4 7 10 11 12 13 12 11 11 11 11 11 12 11 9 10 11 3 5 9 7 10 11 12 15 18 20 21 22 23 24 24 26 26 26 24 23 25 26 27 27
Wind_Direction
242 217 187 191 182 164 172 178 156 224 193 205 196 193 198 196 191 182 182 182 178 174 165 164 202 226 253 262 236 240 240 251 271 292 285 272 258 267 268 267 264 261 266 279
255 198 200 225 206 196 210 146 275 163 241 236 195 184 189 196 189 189 190 186 179 179 180 176 186 210 244 277 226 216 234 269 279 282 283 274 273 267 268 266 267 265 270 275
232 191 140 315 206 200 200 188 150 163 217 152 166 193 195 193 190 194 192 189 185 177 178 178 173 186 172 167 181 200 224 229 261 271 276 281 285 283 277 270 269 273 276 276
163 93 208 236 305 194 202 219 212 224 179 178 190 200 199 195 196 198 196 193 193 188 186 183 180 175 178 179 192 210 220 244 247 261 275 283 288 289 287 276 270 269 278 284
141 183 275 258 188 163 170 267 206 189 132 151 162 156 193 202 205 204 201 197 196 196 199 198 193 190 191 199 206 208 217 238 254 269 277 285 289 288 286 280 269 270 272 273
137 156 210 226 323 315 147 273 212 182 159 151 145 159 220 203 205 207 202 198 199 205 212 211 205 203 209 202 211 223 238 265 279 286 287 290 289 288 287 286 284 280 278 279
152 197 285 243 204 119 130 247 220 198 182 166 177 202 181 178 187 192 191 191 190 185 184 186 188 188 209 222 236 261 299 308 309 307 306 305 302 296 290 287 285 283 281 280
102 106 273 179 136 157 218 122 186 196 172 167 161 144 161 165 167 169 169 166 170 169 175 179 178 183 225 237 262 287 301 306 309 309 305 300 297 295 293 291 289 287 284 280
175 215 294 303 269 267 181 143 141 153 149 148 137 145 150 151 159 166 171 172 179 188 187 186 189 197 221 290 305 306 305 306 307 307 308 307 303 298 297 295 293 291 291 290
36 307 314 335 247 139 129 111 113 117 128 139 139 147 151 158 166 173 180 189 195 199 200 199 204 240 287 297 301 299 299 299 299 301 302 302 298 295 294 293 293 292 294 295
263 264 35 16 108 125 121 113 113 118 122 130 139 155 164 171 179 189 198 198 203 220 214 206 228 262 275 287 286 289 293 295 297 297 296 295 293 291 290 288 288 291 291 291
219 267 109 175 152 136 129 115 120 128 136 145 141 165 182 177 187 260 228 204 206 213 227 245 255 264 271 273 280 286 289 293 297 297 297 296 297 299 297 297 292 283 282 283
286 140 77 152 147 158 147 157 157 173 167 169 174 161 238 229 212 217 213 210 213 229 248 257 259 260 275 285 290 293 295 297 296 298 301 302 303 305 306 305 302 301 299 294
100 140 93 136 156 173 178 178 172 184 239 219 212 211 227 223 213 203 206 218 235 247 251 260 273 284 290 293 295 296 298 296 296 299 300 300 303 304 304 306 306 304 303 303
158 208 178 178 193 211 197 194 200 224 221 210 215 228 221 215 211 213 221 231 240 257 276 289 292 297 297 295 296 297 296 297 295 297 298 301 304 304 305 305 304 302 302 301
198 270 244 202 191 194 193 197 215 214 222 229 232 225 218 210 205 209 230 252 278 292 295 297 298 303 296 301 300 301 302 300 300 303 304 306 307 307 306 303 303 301 302 301
276 266 252 239 221 201 203 213 234 237 210 196 181 175 180 194 218 256 283 294 298 301 305 305 303 295 297 298 302 305 305 307 306 308 310 309 309 308 306 307 309 308 305 303
256 257 254 265 236 230 233 235 226 202 175 165 167 186 253 295 307 309 309 301 300 303 306 299 299 294 294 294 303 309 309 310 311 311 311 310 311 315 314 313 308 308 309 306
264 250 250 260 248 212 188 165 156 159 164 185 231 270 287 297 297 292 291 294 299 300 300 297 297 297 293 304 310 312 313 314 315 315 311 312 314 315 316 315 314 313 311 310
155 159 155 146 140 152 155 158 164 205 224 264 296 308 310 297 293 294 295 298 301 297 297 298 299 300 308 313 315 318 319 318 319 317 316 316 315 319 323 326 327 320 317 314
128 123 126 133 143 151 166 150 144 124 287 281 274 282 297 300 294 296 300 308 307 306 304 302 307 313 318 321 324 326 328 327 328 322 318 318 320 326 331 332 332 328 322 314
194 185 190 177 181 171 157 168 220 269 278 275 255 273 307 302 299 293 314 324 323 316 308 317 317 321 326 331 335 339 340 339 332 324 323 328 333 335 337 339 339 337 333 328
232 235 251 209 203 174 205 244 263 261 270 255 251 273 291 284 290 291 315 329 340 334 304 305 316 319 333 342 347 352 345 344 335 335 336 343 346 348 346 346 348 346 350 351
87 114 134 182 225 244 257 249 251 260 245 249 261 277 290 285 272 287 311 314 282 270 288 310 316 335 348 355 351 351 350 351 350 347 348 351 356 355 357 359 0 3 8 7
111 116 155 248 254 274 268 249 241 238 261 275 280 285 287 279 278 289 298 272 234 256 296 310 322 348 359 354 357 355 355 2 4 2 3 9 11 14 16 20 24 25 27 35
75 34 357 320 296 278 266 263 266 275 282 282 277 273 261 264 287 288 272 219 215 281 305 314 325 360 352 359 359 2 9 19 25 29 29 28 28 31 35 41 48 51 52 57
81 28 360 306 311 304 286 281 284 286 282 275 268 266 270 280 282 268 243 209 151 304 322 345 357 355 3 1 4 14 20 29 36 40 43 48 50 52 54 58 60 64 68 70